Powrót do katalogu

FENGYUN 1C DEB

AktywnySSO
NORAD 31547·DEBRIS·🇨🇳 China

Wystrzelony May 10, 1999 z Taiyuan Satellite Launch Center

Loading…

Następne Przeloty (najbliższe 24 godziny)

TLE

ŚwieżeSource: Space-Track

Epoka: Sep 13, 2026, 10:13 UTC

1 31547U 99025BYN 26256.42590990  .00001874  00000-0  81546-3 0  9991
2 31547  99.0702 314.0334 0053428 183.9549 176.1214 14.24557586679267

Śledź FENGYUN 1C DEB w czasie rzeczywistym z AllMySat

Download on the App Store